This is the latest recevied weather packets stored in our database for station/object W4GAP. If no packets are shown the sender has not sent any weather packets the latest 10 day(s).
| Time | Temp. | Humidity | Pressure | Rain* | Wind** | Luminosity | Snow |
|---|---|---|---|---|---|---|---|
| 1778168634 | 18.33° C | 99% | 1008.6 hPa | 0 mm | - | 318 W/m² | - |
| 1778168388 | 18.33° C | 99% | 1008.5 hPa | 0 mm | - | 58 W/m² | - |
| 1778168332 | 18.33° C | 99% | 1008.5 hPa | 0 mm | - | 58 W/m² | - |
| 1778168167 | 17.78° C | 99% | 1008.8 hPa | 0 mm | - | 65 W/m² | - |
| 1778168028 | 17.78° C | 99% | 1008.8 hPa | 0 mm | - | 65 W/m² | - |
| 1778167724 | 17.78° C | 99% | 1008.9 hPa | 0 mm | - | 56 W/m² | - |
| 1778167474 | 17.78° C | 99% | 1008.7 hPa | 0 mm | - | 65 W/m² | - |
| 1778167421 | 17.78° C | 99% | 1009.1 hPa | 0 mm | - | 142 W/m² | - |
| 1778167117 | 17.78° C | 99% | 1008.7 hPa | 0 mm | - | 65 W/m² | - |
| 1778166813 | 17.78° C | 99% | 1008.7 hPa | 0 mm | - | 79 W/m² | - |
| 1778166511 | 18.33° C | 99% | 1008.7 hPa | 0 mm | - | 151 W/m² | - |
| 1778166207 | 17.78° C | 99% | 1008.8 hPa | 0 mm | - | 88 W/m² | - |
| 1778165903 | 17.78° C | 99% | 1008.7 hPa | 0 mm | - | 116 W/m² | - |
| 1778165600 | 17.78° C | 99% | 1009 hPa | 0 mm | - | 69 W/m² | - |
| 1778165297 | 17.78° C | 99% | 1008.8 hPa | 0 mm | - | 102 W/m² | - |
| 1778164994 | 17.78° C | 99% | 1008.7 hPa | 0 mm | - | 49 W/m² | - |
| 1778164690 | 17.78° C | 99% | 1009.1 hPa | 0 mm | - | 54 W/m² | - |
| 1778164388 | 17.78° C | 99% | 1008.7 hPa | 0 mm | - | 64 W/m² | - |
| 1778164084 | 17.78° C | 99% | 1008.7 hPa | 0 mm | - | 90 W/m² | - |
| 1778163780 | 17.78° C | 99% | 1009.2 hPa | 0 mm | - | 66 W/m² | - |
| 1778163477 | 17.78° C | 99% | 1009.1 hPa | 0 mm | - | 45 W/m² | - |
| 1778163174 | 17.78° C | 99% | 1009.1 hPa | 0 mm | - | 30 W/m² | - |
| 1778162870 | 17.78° C | 99% | 1008.9 hPa | 0 mm | - | 26 W/m² | - |
| 1778162568 | 17.22° C | 99% | 1008.9 hPa | 0 mm | - | 32 W/m² | - |
| 1778162264 | 17.22° C | 99% | 1008.6 hPa | 0 mm | - | 32 W/m² | - |
* Rain latest hour (hover to see other rain measurements)
** Current wind speed in m/s (hover to see current wind gust speed)